Location: *
(49.9853°N, 3.5569°E)
Time: 06:41:55
(UTC+00:00)

Meteor 1-4 Rocket - Pass Details

Date: 22 September 2019
Orbit: 449 x 504 km, 81.2° (Epoch: 14 October)

Event Time Altitude Azimuth Distance (km) Brightness Sun altitude
Rises 19:35:15 0° 340° (NNW) 2,514 6.9 -18.1°
Reaches altitude 10° 19:37:29 10° 331° (NNW) 1,623 6.0 -18.5°
Maximum altitude 19:40:42 33° 266° (W) 791 4.2 -18.9°
Drops below altitude 10° 19:43:51 10° 200° (SSW) 1,589 5.1 -19.4°
Enters shadow 19:44:23 - 197° (SSW) 1,796 5.4 -19.5°
